Orlando International Airport
KMCO : now visible

Airfield :











YOU CAN JOIN US ON...

 
LOGIN :

Register | Disclaimer

   EN    FR    IT 

 









Legend :    VFR   Marginal VFR   IFR   Intensive IFR   Very Intensive IFR
Visi :
Ceiling :
>= 8 km
>= 3000ft
5 to 8 km
1000 to 3000 ft
1500m to 5 km
500 to 1000 ft
800 to 1500m
200 to 500 ft
< 800m
< 200 ft
Symbols :   Thunderstorms  Fog  Heavy snow  Heavy precipitations  Wind > 20 kt






- Airport Elevation : 96 ft
- IATA code : MCO


KMCO - Orlando International

CURRENT METAR :
  • 231553Z 32008KT 10SM OVC008 08/06 A3016 RMK AO2 SLP211 T00780056

EXPIRED METARs :
  • 231453Z 32007KT 10SM OVC006 08/06 A3016 RMK AO2 SLP212 T00780061 51008
  • 231353Z 35009KT 9SM OVC006 07/06 A3015 RMK AO2 SLP209 T00720061

TAF KMCO
Valid from the 23 at 15:00 until the 24 at 18:00 UTC


231459Z 2315/2418 29008KT P6SM BKN006
FM231700 29008KT P6SM SCT008 BKN012
FM231800 29008KT P6SM SCT015 BKN030
FM231900 29008KT P6SM SCT030
FM232300 36005KT P6SM SKC
KZMA FIR / North America



MET'MAP, your aeronautical weather chart ! - Copyright ORBIFLY December 2007 - Disclaimer

ORBIFLY MET'MAP TEAM :

Programming & Development : Alexandra Zaïnal
Concept & original design : Baudouin d'Aumeries
Assistance for programming : Marc-Olivier Méhu
Technical & hardware support : Manuel Goepfert

Contact : metmap@orbifly.com




SOURCES & CREDITS :

   NOAA       Earth
Advisory